Location: Marion Hill
(40.7303°N, 80.2959°W)
Time: 07:32:48
(UTC+00:00)

Cosmos 2263 Rocket - Pass Details

Date: 29 October 2020
Orbit: 822 x 850 km, 71.0° (Epoch: 28 November)

Event Time Altitude Azimuth Distance (km) Brightness Sun altitude
Rises 23:43:29 0° 348° (NNW) 3,420 5.5 -16.2°
Reaches altitude 10° 23:46:39 10° 5° (N) 2,483 4.5 -16.8°
Enters shadow 23:50:20 20° 45° (NE) 1,893 3.6 -17.5°
